[[{"header":{"parameterUnit":"m.s-1","parameterCategory":1,"la1":30.2991,"la2":30.254,"lo1":-89.0895,"lo2":-89.0444,"dy":0.0017,"dx":0.0017,"nx":28,"ny":28,"refTime":"2024-07-30T21:00:00:Z","depth":0,"parameterNumber":2,"parameterNumberName":"U-component_of_WINDS"},"data":[0,0,0,0,0,0,0,0,0,0,0,0,0,0,0,0,0,0,0,0,0,0,0,0,0,0,0,0,0,0,0,0,0,0,0,0,0,0,0,0,0,0,0,0,0,0,0,0,0,0,0,0,0,0,0,0,0,0,4.1094,4.1096,0,4.1206,4.1207,4.1208,4.1128,4.1125,4.1121,4.1118,4.1232,4.1238,4.1245,0,0,0,0,0,0,0,0,0,0,0,0,0,4.0812,4.0818,4.1094,4.1096,4.1097,4.1205,4.1207,4.1208,4.1129,4.1125,4.112,4.1116,4.123,4.1238,4.1245,0,0,0,0,0,0,0,0,0,0,0,0,0,4.093,4.082,4.1094,4.1071,4.1069,4.1205,4.1207,4.1209,4.113,4.1125,4.1119,4.1114,4.1228,4.1237,4.1246,4.1411,0,0,4.1275,4.1279,0,0,0,0,0,0,0,0,4.0924,4.0941,4.1073,4.1072,4.1071,4.1148,4.1149,4.1277,4.1131,4.1107,4.1118,4.1112,4.1208,4.1219,4.1252,4.1417,4.1422,4.1276,4.1282,4.1286,4.1289,0,0,0,0,0,0,0,4.0916,4.0935,4.1138,4.1075,4.1074,4.1054,4.1065,4.1173,4.1186,4.1109,4.1103,4.1117,4.1207,4.1243,4.1254,4.1423,4.1276,4.1284,4.129,4.1294,4.1726,4.1732,0,0,0,0,0,0,4.091,4.0929,4.1135,4.1142,4.0983,4.1063,4.1076,4.1129,4.1185,4.1188,4.1122,4.1113,4.1229,4.1243,4.1258,4.1452,4.1286,4.1295,4.13,4.1721,4.1728,4.1734,0,0,0,0,0,0,4.0904,4.0929,4.113,4.1034,4.1058,4.1074,4.1134,4.1134,4.1169,4.1195,4.1197,4.1156,4.1225,4.1244,4.1373,4.1455,4.1299,4.1308,4.1714,4.1723,4.1731,4.1844,0,0,0,0,0,0,4.0896,4.0927,4.099,4.1036,4.1064,4.1245,4.1139,4.114,4.1186,4.1176,4.1227,4.1231,4.1223,4.1359,4.1383,4.1465,4.1315,4.1707,4.1718,4.1728,4.1833,4.1856,4.1875,0,0,0,0,0,4.0886,4.1018,4.0994,4.1019,4.1143,4.125,4.1265,4.1253,4.1193,4.1256,4.1272,4.1229,4.1443,4.1373,4.1399,4.1486,4.1701,4.1715,4.1727,4.1824,4.1851,4.1875,0,0,0,0,0,0,4.0982,4.1024,4.0997,4.1148,4.1196,4.1236,4.1315,4.1283,4.1349,4.1337,4.132,4.1332,4.1467,4.1489,4.1411,4.1647,4.1562,4.1581,4.1627,4.1653,4.1674,4.1665,4.1323,0,0,0,0,0,4.1021,4.1104,4.1136,4.1266,4.1292,4.13,4.1346,4.1332,4.1381,4.1401,4.1426,4.1475,4.1553,4.1605,4.1678,4.1837,4.1846,4.1909,4.193,4.1947,4.1963,4.2046,4.2074,4.1777,4.1777,4.1776,0,0,4.1102,4.1135,4.1189,4.1286,4.1322,4.1407,4.1317,4.1412,4.1475,4.1415,4.1538,4.1559,4.1612,4.1756,4.182,4.1779,4.2047,4.1964,4.1977,4.1983,4.2062,4.209,4.2115,4.1786,4.1784,4.1783,0,0,4.1292,4.1327,4.1438,4.1475,4.1529,4.1533,4.156,4.1605,4.1616,4.1739,4.1695,4.177,4.1905,4.1944,4.1982,4.2186,4.2148,4.2211,4.2319,4.24,4.2424,4.2444,4.2515,4.2541,4.2227,4.2227,4.2227,0,4.1386,4.1514,4.1499,4.1597,4.164,4.159,4.1701,4.1738,4.1814,4.1845,4.1797,4.1964,4.1997,4.2148,4.2197,4.223,4.2259,4.2204,4.2422,4.2442,4.2461,4.2528,4.2555,4.2234,4.2233,4.2233,4.2232,0,4.1624,4.1714,4.1797,4.187,4.1923,4.2028,4.2028,4.2084,4.2066,4.2075,4.22,4.2237,4.2316,4.2351,4.2335,4.25,4.2472,4.2424,4.2338,4.2497,4.2559,4.2585,4.2244,4.2242,4.224,4.2238,0,0,4.1878,4.1941,4.1972,4.2004,4.206,4.2128,4.223,4.2307,4.2353,4.2408,4.2491,4.2606,4.2561,4.2604,4.2592,4.2664,4.282,4.2606,4.2607,4.2643,4.3001,4.3035,4.3065,4.2796,4.2801,4.2805,4.2996,0,4.2069,4.2246,4.2235,4.2401,4.2482,4.2435,4.2523,4.2567,4.2578,4.2648,4.266,4.2741,4.2677,4.2702,4.2771,4.2787,4.2892,4.2773,4.2872,4.2876,4.2858,4.3099,4.3136,4.3314,4.302,4.3025,4.3028,0,4.2316,4.2377,4.2551,4.2593,4.2627,4.2706,4.2774,4.2843,4.2891,4.2894,4.2941,4.2917,4.3019,4.2932,4.3071,4.299,4.303,4.3044,4.3051,4.3058,4.296,4.311,4.337,4.3396,4.3067,4.3063,4.3061,0,4.248,4.2607,4.2726,4.2755,4.2808,4.2865,4.2889,4.2932,4.2978,4.3039,4.3068,4.314,4.3178,4.3234,4.3229,4.3167,4.337,4.3283,4.3373,4.3374,4.3416,4.3413,4.3685,4.3447,4.3446,4.3446,4.3445,0,4.2693,4.2801,4.28,4.2873,4.2992,4.2979,4.3096,4.3115,4.3153,4.3229,4.3193,4.3265,4.3255,4.3327,4.3324,4.3438,4.3457,4.3461,4.3458,4.3463,4.3462,4.3487,4.3474,4.3453,4.3451,4.345,4.3449,0,4.2896,4.29,4.3027,4.3066,4.3079,4.3164,4.3197,4.3266,4.3275,4.337,4.3392,4.3405,4.3487,4.3489,4.3583,4.3581,4.372,4.3705,4.3703,4.3699,4.3789,4.378,4.4084,4.4122,4.3862,4.3864,4.3867,0,4.303,4.3112,4.316,4.3207,4.3235,4.3313,4.336,4.335,4.34,4.346,4.3522,4.3601,4.3663,4.3797,4.3814,4.3886,4.3871,4.3972,4.3881,4.3882,4.3869,4.3863,4.387,4.399,4.3992,4.3995,4.3997,0,4.3268,4.3266,4.3334,4.3404,4.346,4.3515,4.3565,4.3606,4.3602,4.366,4.3743,4.3791,4.3887,4.3966,4.4035,4.4059,4.4027,4.4026,4.405,4.4054,4.4049,4.405,4.3749,4.4018,4.4016,4.4015,4.4013,4.4012,4.3439,4.3508,4.3552,4.3629,4.3666,4.3713,4.3779,4.3795,4.3865,4.3942,4.3932,4.4025,4.4069,4.4159,4.4189,4.4261,4.4225,4.4261,4.427,4.4278,4.4287,4.4039,4.4274,4.4273,4.4273,4.4272,4.4272,0,4.3672,4.3698,4.3769,4.384,4.39,4.3865,4.3919,4.3971,4.4053,4.4098,4.4159,4.4255,4.433,4.4353,4.4426,4.4479,4.4466,4.4498,4.4493,4.4498,4.4316,4.4286,4.4507,4.4507,4.4507,4.4507,4.4507,4.4507,4.38,4.3915,4.3918,4.405,4.4075,4.4165,4.4198,4.4241,4.4276,4.4384,4.4446,4.4461,4.4496,4.4571,4.4638,4.4643,4.467,4.4708,4.4707,4.4535,4.4512,4.4489,4.4461,4.4715,4.4715,4.4883,4.4885,4.4886]},{"header":{"parameterUnit":"m.s-1","parameterCategory":1,"la1":30.2991,"la2":30.254,"lo1":-89.0895,"lo2":-89.0444,"dy":0.0017,"dx":0.0017,"nx":28,"ny":28,"refTime":"2024-07-30T21:00:00:Z","depth":0,"parameterNumber":3,"parameterNumberName":"V-component_of_WINDS"},"data":[0,0,0,0,0,0,0,0,0,0,0,0,0,0,0,0,0,0,0,0,0,0,0,0,0,0,0,0,0,0,0,0,0,0,0,0,0,0,0,0,0,0,0,0,0,0,0,0,0,0,0,0,0,0,0,0,0,0,3.1138,3.1139,0,3.1193,3.1193,3.1194,3.1151,3.1149,3.1147,3.1146,3.1202,3.1205,3.1208,0,0,0,0,0,0,0,0,0,0,0,0,0,3.0997,3.0999,3.1138,3.1139,3.114,3.1193,3.1193,3.1194,3.1151,3.1149,3.1147,3.1145,3.12,3.1204,3.1208,0,0,0,0,0,0,0,0,0,0,0,0,0,3.1055,3.1,3.1138,3.1125,3.1124,3.1193,3.1193,3.1194,3.1152,3.1149,3.1146,3.1144,3.1199,3.1204,3.1209,3.1293,0,0,3.1223,3.1225,0,0,0,0,0,0,0,0,3.1052,3.1061,3.1126,3.1126,3.1125,3.1162,3.1164,3.1228,3.1153,3.1141,3.1146,3.1142,3.1191,3.1196,3.1212,3.1296,3.1298,3.1224,3.1227,3.1229,3.123,0,0,0,0,0,0,0,3.1048,3.1058,3.116,3.1127,3.1127,3.1116,3.1121,3.1176,3.1181,3.1142,3.1139,3.1146,3.119,3.1208,3.1213,3.1299,3.1224,3.1228,3.1231,3.1233,3.1453,3.1456,0,0,0,0,0,0,3.1045,3.1055,3.1158,3.1162,3.1081,3.112,3.1126,3.1153,3.118,3.1182,3.1148,3.1144,3.1201,3.1208,3.1215,3.1315,3.1229,3.1233,3.1236,3.145,3.1453,3.1457,0,0,0,0,0,0,3.1042,3.1055,3.1156,3.1107,3.1119,3.1126,3.1156,3.1156,3.1173,3.1185,3.1185,3.1166,3.1199,3.1208,3.1274,3.1316,3.1235,3.124,3.1446,3.1451,3.1455,3.1516,0,0,0,0,0,0,3.1039,3.1054,3.1087,3.1108,3.1122,3.1214,3.1159,3.1159,3.1182,3.1177,3.1201,3.1203,3.1198,3.1267,3.1278,3.1321,3.1243,3.1442,3.1448,3.1454,3.151,3.1522,3.1532,0,0,0,0,0,3.1034,3.1102,3.1089,3.1101,3.1163,3.1217,3.1225,3.1217,3.1186,3.1218,3.1225,3.1202,3.131,3.1274,3.1287,3.1332,3.144,3.1447,3.1453,3.1505,3.1519,3.1531,0,0,0,0,0,0,3.1086,3.1105,3.109,3.1168,3.1191,3.121,3.125,3.1233,3.1266,3.1259,3.1249,3.1255,3.1323,3.1334,3.1294,3.1414,3.1369,3.1379,3.1404,3.1418,3.1429,3.1425,3.1247,0,0,0,0,0,3.1106,3.1148,3.1163,3.123,3.1242,3.1244,3.1267,3.126,3.1283,3.1293,3.1305,3.1329,3.1367,3.1393,3.143,3.1511,3.1515,3.1548,3.1559,3.1568,3.1576,3.1618,3.1633,3.1479,3.1479,3.1478,0,0,3.1149,3.1165,3.1192,3.1241,3.1258,3.1301,3.1253,3.1301,3.1333,3.13,3.1362,3.1372,3.1397,3.1471,3.1504,3.1482,3.1619,3.1576,3.1583,3.1587,3.1627,3.1641,3.1654,3.1483,3.1482,3.1482,0,0,3.1249,3.1266,3.1323,3.134,3.1367,3.1367,3.1381,3.1402,3.1407,3.1469,3.1445,3.1482,3.155,3.1569,3.1587,3.1693,3.1672,3.1705,3.1762,3.1803,3.1815,3.1826,3.1863,3.1876,3.1713,3.1713,3.1713,0,3.1299,3.1364,3.1354,3.1404,3.1425,3.1397,3.1454,3.1472,3.1509,3.1524,3.1499,3.1582,3.1598,3.1674,3.17,3.1716,3.173,3.1702,3.1814,3.1825,3.1835,3.187,3.1883,3.1717,3.1717,3.1716,3.1716,0,3.1424,3.1469,3.1512,3.1547,3.1574,3.1627,3.1625,3.1652,3.1642,3.1645,3.1708,3.1725,3.1764,3.1781,3.1772,3.1856,3.1842,3.1816,3.1771,3.1853,3.1886,3.1899,3.1722,3.1721,3.172,3.1719,0,0,3.1559,3.1588,3.1603,3.1619,3.1645,3.1679,3.1731,3.1768,3.1792,3.1818,3.186,3.1917,3.1893,3.1914,3.1906,3.1942,3.2023,3.1911,3.1912,3.1931,3.2116,3.2135,3.215,3.201,3.2012,3.2014,3.2113,0,3.166,3.1749,3.1741,3.1826,3.1867,3.1839,3.1884,3.1904,3.1908,3.1943,3.1947,3.1988,3.1953,3.1965,3.2,3.2006,3.206,3.1999,3.2048,3.205,3.2042,3.2168,3.2188,3.2281,3.2126,3.2128,3.213,0,3.179,3.1819,3.1908,3.1926,3.1943,3.1983,3.2016,3.205,3.2072,3.2073,3.2095,3.2081,3.2132,3.2085,3.2155,3.2113,3.2133,3.2139,3.2142,3.2146,3.2095,3.2175,3.2311,3.2324,3.215,3.2148,3.2147,0,3.1878,3.1941,3.2001,3.2015,3.2039,3.2067,3.2078,3.2098,3.212,3.2149,3.2163,3.2198,3.2217,3.2243,3.2238,3.2205,3.2308,3.2262,3.2309,3.2309,3.2332,3.2331,3.2473,3.2346,3.2346,3.2345,3.2345,0,3.1991,3.2046,3.2041,3.2079,3.2139,3.2129,3.2189,3.2196,3.2213,3.2251,3.223,3.2266,3.2257,3.2292,3.2288,3.2345,3.2354,3.2355,3.2354,3.2357,3.2357,3.237,3.2363,3.2349,3.2348,3.2347,3.2347,0,3.2101,3.21,3.2164,3.218,3.2186,3.2229,3.2243,3.2278,3.2279,3.2327,3.2338,3.2341,3.2381,3.2378,3.2424,3.2421,3.2492,3.2483,3.2484,3.2482,3.2529,3.2525,3.2684,3.2704,3.2564,3.2566,3.2567,0,3.2173,3.2215,3.2235,3.2259,3.2271,3.231,3.2332,3.2324,3.2348,3.2375,3.2407,3.2445,3.2475,3.254,3.2546,3.258,3.2572,3.2625,3.2577,3.2578,3.2571,3.2569,3.2572,3.2635,3.2636,3.2637,3.2638,0,3.2301,3.2298,3.2331,3.2365,3.2392,3.2418,3.2441,3.2462,3.2455,3.2483,3.2524,3.2547,3.2593,3.2631,3.2663,3.2674,3.2655,3.2654,3.2666,3.267,3.2669,3.2669,3.251,3.265,3.2649,3.2648,3.2647,3.2647,3.2393,3.2428,3.2448,3.2486,3.2502,3.2524,3.2557,3.2562,3.2596,3.2633,3.2625,3.2671,3.269,3.2732,3.2745,3.278,3.2761,3.278,3.2784,3.2789,3.2794,3.2664,3.2786,3.2786,3.2786,3.2785,3.2785,0,3.2519,3.253,3.2565,3.2598,3.2627,3.2606,3.2631,3.2657,3.2697,3.2717,3.2746,3.2792,3.2829,3.2837,3.2871,3.2897,3.289,3.2907,3.2905,3.2907,3.281,3.2795,3.2912,3.2912,3.2912,3.2912,3.2912,3.2912,3.2588,3.2646,3.2645,3.271,3.2721,3.2765,3.2781,3.28,3.2816,3.2868,3.2898,3.2903,3.2918,3.2953,3.2985,3.2986,3.3,3.302,3.3018,3.2927,3.2914,3.2902,3.2888,3.3023,3.3023,3.3113,3.3113,3.3114]}]]